Regional Weather Roundup
Issued by NWS

Home | Current Version | Previous Version | Text Only | Print | Product List | Glossary On
Versions: 1 2 3 4 5 6 7 8 9 10 11 12 13 14 15 16 17 18 19 20 21 22 23 24 25 26 27 28 29 30 31 32 33 34 35 36 37 38 39 40 41 42 43 44 45 46 47 48 49 50
000
ASUS44 KFWD 232301
RWRTX
NORTH TEXAS HOURLY WEATHER ROUNDUP
NATIONAL WEATHER SERVICE FORT WORTH TX
500 PM CST SUN NOV 23 2014

NOTE: "FAIR" INDICATES FEW OR NO CLOUDS BELOW 12,000 FEET WITH NO
SIGNIFICANT WEATHER AND/OR OBSTRUCTIONS TO VISIBILITY.

TXZ118-119-240000-
DALLAS/FORT WORTH METROPLEX

CITY           SKY/WX    TMP DP  RH WIND       PRES   REMARKS
DFW AIRPORT    PTCLDY    67  42  40 NW24G40   29.47R
DALLAS LOVE    PTCLDY    71  40  32 NW25G36   29.47R
FTW MEACHAM    CLEAR     68  44  42 NW18G37   29.49R
DAL-EXECUTIVE  CLEAR     74  33  22 W22G36    29.47R
FTW-ALLIANCE   CLEAR     65  44  46 W18G35    29.50R
FTW-SPINKS     CLEAR     72  37  28 W20G31    29.51R
ARLINGTON      CLEAR     73  34  23 W22G33    29.48R
GRAND PRAIRIE  CLEAR     72  39  30 W16G29    29.49R
ADDISON        CLEAR     70  39  32 W25G44    29.47R
MESQUITE       CLEAR     73  36  25 W18G24    29.45R
LANCASTER      CLEAR     74  34  22 W13       29.47R
$$

TXZ091>094-102>105-117-120-121-131>134-240000-
NORTH CENTRAL TEXAS

CITY           SKY/WX    TMP DP  RH WIND       PRES   REMARKS
SHRMAN/DENISON CLEAR     65  47  52 W33G43    29.46R
BRIDGEPORT     CLEAR     64  46  51 NW22G30   29.57R
DENTON         CLEAR     64  43  46 W26G38    29.49R
MCKINNEY       CLEAR     69  41  36 W30G41    29.46R
ROCKWALL       CLEAR     74  37  26 W18G30    29.43R
TERRELL        CLEAR     75  37  25 W13G30    29.44R
WAXAHACHIE     CLEAR     73  44  34 W13G20    29.49R
$$

TXZ083>090-098>101-113>116-127>130-139>142-154-155-240000-
WESTERN NORTH TEXAS

CITY           SKY/WX    TMP DP  RH WIND       PRES   REMARKS
WICHITA FALLS  CLOUDY    56  40  55 NW26G39   29.59R
WF-KICKAPOO    CLOUDY    57  37  48 NW23G39   29.61R
ABILENE        CLEAR     65  36  34 N18       29.62R
ABILENE-DYESS  CLEAR     65  36  34 N16       29.62R
MINERAL WELLS  CLEAR    N/A N/A N/A NW17G30   29.54R
STEPHENVILLE   CLEAR     68  36  29 NW15      29.58R
COMANCHE       CLEAR     69  39  33 NW16G26   29.56R
$$

TXZ143>147-156>162-174-175-240000-
CENTRAL TEXAS

CITY           SKY/WX    TMP DP  RH WIND       PRES   REMARKS
WACO           CLEAR     75  39  27 W14       29.50R
WACO-TSTC      CLEAR     77  41  27 SW6       29.50R
WACO-MCGREGOR  CLEAR     73  45  35 W7        29.52R
CORSICANA      CLEAR     74  40  29 W12       29.49R
MEXIA          CLEAR     75  44  32 W9        29.49R
HEARNE         CLEAR     76  46  33 SW7       29.52R
TEMPLE         CLEAR     75  39  27 SW12      29.51R
KILLEEN        CLEAR     75  36  24 W9G20     29.54R
KILLEEN-SKYLRK CLEAR     75  39  27 W9        29.52R
FORT HOOD      CLEAR     79  38  22 SW14G20   29.53R
HAMILTON       CLEAR     72  38  29 W12G22    29.54R
LAMPASAS       CLEAR     76  39  26 W8        29.55R
$$

TXZ095>097-106>112-122>126-135>138-148>153-164>167-240000-
EAST TEXAS

CITY           SKY/WX    TMP DP  RH WIND       PRES   REMARKS
PARIS          CLEAR     70  45  40 SW9       29.39R
SULPHUR SPRNGS CLEAR     73  41  31 SW10      29.43R
MINEOLA        CLEAR     73  43  33 SW6       29.44R
TYLER          CLEAR     73  45  36 SW12G23   29.45R
LONGVIEW       CLEAR     72  48  42 SW10      29.43R
JACKSONVILLE   CLEAR     73  44  34 SW9G16    29.50R
NACOGDOCHES    CLEAR     72  50  46 SW8       29.50R
LUFKIN         CLEAR     74  53  48 S8        29.50R
$$

SUPPLEMENTAL OBSERVATIONS (CENTRAL)

CITY           SKY/WX    TMP DP  RH WIND       PRES   REMARKS
$$

SUPPLEMENTAL OBSERVATIONS (WEST)

CITY           SKY/WX    TMP DP  RH WIND       PRES   REMARKS
$$

SUPPLEMENTAL OBSERVATIONS (EAST)

CITY           SKY/WX    TMP DP  RH WIND       PRES   REMARKS
$$

SUPPLEMENTAL OBSERVATIONS ARE A COLLECTION OF AUTOMATED INSTRUMENTS
THAT ARE MAINTAINED BY A VARIETY OF FEDERAL AND STATE AGENCIES.
CERTAIN ELEMENTS...SUCH AS HUMIDITY VALUES AND SUSTAINED WIND
SPEEDS...MAY BE APPROXIMATED.



USA.gov is the U.S. government's official web portal to all federal, state and local government web resources and services.